TimePDT,TemperatureF,Dew PointF,Humidity,Sea Level PressureIn,VisibilityMPH,Wind Direction,Wind SpeedMPH,Gust SpeedMPH,PrecipitationIn,Events,Conditions,WindDirDegrees,DateUTC
12:52 AM,96.1,51.1,22,29.75,10.0,WSW,10.4,-,N/A,,Clear,250,2013-08-15 07:52:00
1:52 AM,91.9,48.9,23,29.75,10.0,South,4.6,-,N/A,,Clear,180,2013-08-15 08:52:00
2:52 AM,93.0,43.0,18,29.75,10.0,SSW,6.9,-,N/A,,Clear,200,2013-08-15 09:52:00
3:52 AM,90.0,44.1,20,29.77,10.0,South,9.2,-,N/A,,Clear,190,2013-08-15 10:52:00
4:52 AM,90.0,45.0,21,29.78,10.0,SE,3.5,-,N/A,,Clear,140,2013-08-15 11:52:00
5:52 AM,90.0,50.0,25,29.79,10.0,South,13.8,-,N/A,,Clear,180,2013-08-15 12:52:00
6:52 AM,88.0,53.1,30,29.81,10.0,SE,4.6,-,N/A,,Clear,140,2013-08-15 13:52:00
7:52 AM,91.0,53.1,27,29.83,10.0,Calm,Calm,-,N/A,,Clear,0,2013-08-15 14:52:00
8:52 AM,93.0,54.0,27,29.84,10.0,South,5.8,-,N/A,,Clear,190,2013-08-15 15:52:00
9:52 AM,99.0,54.0,22,29.84,10.0,SSW,9.2,-,N/A,,Clear,200,2013-08-15 16:52:00
10:52 AM,100.9,55.0,22,29.84,10.0,Variable,6.9,-,N/A,,Clear,0,2013-08-15 17:52:00
11:52 AM,105.1,54.0,18,29.82,10.0,Calm,Calm,-,N/A,,Clear,0,2013-08-15 18:52:00
12:52 PM,106.0,52.0,17,29.80,10.0,South,5.8,-,N/A,,Clear,180,2013-08-15 19:52:00
1:52 PM,108.0,53.1,16,29.78,10.0,SE,10.4,-,N/A,,Clear,140,2013-08-15 20:52:00
2:52 PM,109.9,51.1,14,29.76,10.0,South,8.1,-,N/A,,Clear,180,2013-08-15 21:52:00
3:52 PM,111.0,51.1,14,29.74,10.0,South,8.1,-,N/A,,Clear,170,2013-08-15 22:52:00
4:52 PM,109.9,52.0,15,29.72,10.0,South,11.5,-,N/A,,Clear,170,2013-08-15 23:52:00
5:52 PM,109.0,53.1,16,29.70,10.0,SSE,8.1,-,N/A,,Clear,160,2013-08-16 00:52:00
6:52 PM,107.1,57.0,19,29.70,10.0,South,9.2,-,N/A,,Partly Cloudy,170,2013-08-16 01:52:00
7:52 PM,104.0,57.9,22,29.72,10.0,South,6.9,-,N/A,,Scattered Clouds,180,2013-08-16 02:52:00
8:52 PM,104.0,55.0,20,29.73,10.0,SW,5.8,-,N/A,,Clear,230,2013-08-16 03:52:00
10:52 PM,102.0,55.9,22,29.76,10.0,WSW,8.1,-,N/A,,Clear,240,2013-08-16 05:52:00
11:52 PM,100.0,55.9,23,29.77,10.0,WSW,11.5,-,N/A,,Clear,250,2013-08-16 06:52:00